DateTimeUTC,F1_A11,F1_S11,BsB_S11,BsG_S11,BsR_S11,BbsB_S11,BbsG_S11,BbsR_S11,BaB_A11,BaG_A11,BaR_A11,Tu_S11,T_S11,Uu_S11,U_S11,P_S11,T1_A11
2021-10-24T01:00:00Z,00000200,21000000,,,,,,,-000.32,0000.36,-000.20,17.1,24.2,,00.0,0643.2,31.0
2021-10-24T01:01:00Z,00000200,21000000,,,,,,,-000.06,-000.61,0000.53,17.2,24.2,,00.0,0643.2,31.0
2021-10-24T01:02:00Z,00000200,21000000,,,,,,,0000.33,0000.29,-000.05,17.2,24.2,,00.0,0643.2,31.0
2021-10-24T01:03:00Z,00000200,61000000,,,,,,,-000.01,0000.24,-000.17,17.2,24.2,,00.0,0643.2,31.0
2021-10-24T01:04:00Z,00000200,41000000,-000.24,-000.19,0000.38,0000.19,0000.14,0000.01,0000.18,0000.31,0000.06,17.6,24.1,,00.0,0644.1,31.0
2021-10-24T01:05:00Z,00000200,01000000,0000.63,0000.21,0000.10,0000.17,0000.03,-000.09,0000.19,0000.01,0000.01,17.7,24.2,,00.0,0644.2,31.0
2021-10-24T01:06:00Z,00000200,01000000,-000.01,0000.02,0000.31,0000.26,-000.11,-000.04,-000.25,0000.00,0000.37,17.8,24.2,,00.0,0644.1,31.0
2021-10-24T01:07:00Z,00000200,01000000,-000.29,-000.18,0000.06,-001.07,0000.16,-000.02,0000.36,0000.21,0000.22,17.8,24.2,,00.0,0644.1,31.0
2021-10-24T01:08:00Z,00000200,01000000,0001.08,0000.32,0000.19,0000.19,0000.24,-000.06,0000.13,-000.21,-000.08,17.9,24.2,,00.0,0644.1,31.0
2021-10-24T01:09:00Z,00000200,01000000,0000.28,-000.21,0000.17,-000.83,0000.06,-000.05,-000.22,0000.13,-000.03,17.9,24.2,,00.0,0644.2,31.0
2021-10-24T01:10:00Z,00000200,01000000,-000.29,0000.04,0000.13,0000.05,0000.11,-000.01,0000.11,0000.24,-000.06,17.9,24.2,,00.0,0644.1,31.0
2021-10-24T01:11:00Z,00000200,01000000,-000.09,-000.19,0000.01,-000.33,-000.29,-000.10,-000.14,-000.46,-000.38,17.9,24.2,,00.0,0644.1,31.0
2021-10-24T01:12:00Z,00000200,01000000,-000.22,0000.02,-000.01,0000.28,0000.49,-000.31,0000.10,0000.18,0000.48,17.9,24.2,,00.0,0644.1,31.0
2021-10-24T01:13:00Z,00000200,01000000,0000.19,-000.30,-000.01,0000.17,-000.14,-000.16,0000.03,-000.25,-000.22,17.9,24.2,,00.0,0644.2,31.0
2021-10-24T01:14:00Z,00000200,01000000,-001.00,-000.16,0000.07,-000.11,-000.20,0000.12,0000.06,0000.29,0000.33,18.0,24.2,,00.0,0644.3,31.0
2021-10-24T01:15:00Z,00000200,01000000,-000.31,0000.43,0000.31,-000.17,-000.20,-000.18,0000.06,0000.02,-000.28,18.0,24.2,,00.0,0644.2,31.0
2021-10-24T01:16:00Z,00000200,01000000,0000.49,0000.18,0000.22,0000.17,0000.08,0000.11,0000.28,0000.26,0000.42,18.0,24.3,,00.0,0644.2,31.0
2021-10-24T01:17:00Z,00000200,01000000,-000.22,0000.19,0000.53,0000.45,-000.14,0000.28,-000.21,-000.29,-000.43,18.1,24.3,,00.0,0644.3,31.0
2021-10-24T01:18:00Z,00000200,01000000,0000.19,0000.19,0000.44,0000.36,-000.05,-000.06,-000.52,-000.47,0000.04,18.1,24.3,,00.0,0644.2,31.0
2021-10-24T01:19:00Z,00000200,01000000,0000.67,0000.24,0000.29,-000.51,0000.00,-000.21,0000.29,0000.51,-000.21,18.0,24.3,,00.0,0644.2,31.0
2021-10-24T01:20:00Z,00000200,01000000,0000.68,-000.00,0000.27,0000.03,-000.16,-000.19,0000.04,-000.08,0000.17,17.9,24.3,,00.0,0644.1,31.0
2021-10-24T01:21:00Z,00000200,01000000,0000.15,-000.49,0000.14,0000.50,-000.06,-000.18,-000.09,-000.48,-000.09,17.8,24.2,,00.0,0644.2,31.0
2021-10-24T01:22:00Z,00000200,01000000,-000.03,0000.13,-000.19,0000.03,0000.19,-000.27,0000.16,0000.49,0000.01,17.7,24.2,,00.0,0644.1,31.0
2021-10-24T01:23:00Z,00000200,01000000,0000.76,0000.10,0000.05,0000.46,-000.11,0000.14,0000.16,-000.11,-000.10,17.6,24.1,,00.0,0644.1,30.9
2021-10-24T01:24:00Z,00000200,01000000,-000.29,-000.01,0000.14,0000.44,-000.42,-000.11,-000.35,-000.24,-000.01,17.5,24.1,,00.0,0644.1,30.9
2021-10-24T01:25:00Z,00000200,01000000,-000.68,-000.09,-000.16,0000.58,0000.20,-000.35,0000.24,0000.19,-000.16,17.4,24.0,,00.0,0644.2,30.9
2021-10-24T01:26:00Z,00000200,01000000,0000.01,0000.17,0000.07,-000.35,-000.10,0000.02,-000.32,-000.01,0000.14,17.4,24.0,,00.0,0644.1,30.9
2021-10-24T01:27:00Z,00000200,01000000,-000.35,0000.10,0000.01,-000.04,-000.41,-000.22,0000.47,-000.20,0000.20,17.4,24.0,,00.0,0644.1,30.9
2021-10-24T01:28:00Z,00000200,01000000,-000.48,0000.39,0000.18,0000.07,0000.25,-000.00,-000.06,0000.55,0000.16,17.4,24.0,,00.0,0644.0,30.9
2021-10-24T01:29:00Z,00000200,01000000,-000.06,0000.36,0000.02,0000.04,-000.23,0000.20,0000.39,0000.12,0000.43,17.5,24.0,,00.0,0644.0,31.0
2021-10-24T01:30:00Z,00000200,01000000,0000.45,-000.11,0000.42,0000.47,-000.03,0000.15,-000.20,0000.07,-000.40,17.6,24.0,,00.0,0644.0,31.0
2021-10-24T01:31:00Z,00000200,01000000,-000.72,-000.46,0000.29,-000.20,0000.02,0000.29,-000.16,-000.01,0000.03,17.6,24.0,,00.0,0644.0,31.0
2021-10-24T01:32:00Z,00000200,01000000,-000.37,-000.09,-000.06,0000.09,-000.38,0000.04,0000.44,0000.10,0000.23,17.7,24.1,,00.0,0644.0,31.0
2021-10-24T01:33:00Z,00000200,01000000,-000.01,0000.15,0000.24,-000.33,-000.24,-000.06,0000.21,-000.35,-000.16,17.7,24.1,,00.0,0644.0,31.0
2021-10-24T01:34:00Z,00000200,01000000,-000.17,0000.23,-000.08,-000.09,0000.15,-000.02,-000.11,0000.61,0000.42,17.8,24.1,,00.0,0644.0,31.0
2021-10-24T01:35:00Z,00000200,01000000,-000.13,0000.57,0000.20,-000.53,-000.16,-000.18,-000.01,0000.26,0000.25,17.8,24.1,,00.0,0644.0,31.0
2021-10-24T01:36:00Z,00000200,01000000,-000.55,0000.06,0000.17,0000.27,-000.26,-000.01,0000.25,0000.07,0000.14,17.9,24.2,,00.0,0644.0,31.0
2021-10-24T01:37:00Z,00000200,01000000,0000.48,-000.04,-000.09,0000.29,0000.13,0000.16,-000.30,-000.13,-000.36,17.9,24.2,,00.0,0644.0,31.0
2021-10-24T01:38:00Z,00000200,01000000,-000.05,0000.04,-000.00,-000.18,0000.05,0000.08,0000.04,0000.02,0000.07,18.0,24.2,,00.0,0643.9,31.0
2021-10-24T01:39:00Z,00000200,01000000,0000.82,-000.06,-000.01,-000.10,-000.29,-000.04,0000.42,0000.11,0000.06,18.0,24.3,,00.0,0643.9,31.0
2021-10-24T01:40:00Z,00000200,01000000,0000.25,-000.08,0000.13,-000.18,-000.02,0000.10,-000.02,0000.12,0000.10,18.0,24.2,,00.0,0644.0,31.0
2021-10-24T01:41:00Z,00000200,01000000,-000.11,0000.32,-000.06,0000.56,-000.25,-000.09,-000.09,-000.28,-000.26,18.0,24.3,,00.0,0643.9,31.0
2021-10-24T01:42:00Z,00000200,01000000,-000.10,0000.03,0000.14,-000.19,-000.28,0000.13,-000.25,0000.26,0000.35,18.0,24.2,,00.0,0644.0,31.0
2021-10-24T01:43:00Z,00000200,01000000,0000.22,0000.21,0000.30,0000.28,0000.06,-000.12,0000.43,-000.02,-000.09,18.0,24.3,,00.0,0643.9,31.0
2021-10-24T01:44:00Z,00000200,01000000,0000.36,-000.10,-000.05,-000.05,-000.28,0000.23,-000.29,0000.24,-000.08,18.0,24.3,,00.0,0643.9,31.0
2021-10-24T01:45:00Z,00000200,01000000,-000.41,-000.03,0000.21,0000.08,-000.22,0000.10,0000.12,0000.17,0000.06,18.1,24.3,,00.0,0643.9,31.0
2021-10-24T01:46:00Z,00000200,01000000,-000.67,-000.16,-000.13,-000.03,-000.24,-000.16,0000.22,-000.70,-000.04,18.1,24.3,,00.0,0643.9,31.0
2021-10-24T01:47:00Z,00000200,01000000,-000.25,0000.06,0000.42,0000.30,0000.28,0000.01,0000.02,0000.57,0000.34,18.1,24.3,,00.0,0643.9,31.0
2021-10-24T01:48:00Z,00000200,01000000,-000.11,0000.48,0000.05,0000.17,-000.06,-000.18,-000.16,-000.18,-000.41,18.2,24.3,,00.0,0643.9,31.0
2021-10-24T01:49:00Z,00000200,01000000,-000.02,-000.27,0000.18,0000.44,-000.23,-000.15,0000.08,0000.12,0000.25,18.1,24.3,,00.0,0643.9,31.0
2021-10-24T01:50:00Z,00000200,01000000,-000.35,-000.12,-000.06,-000.31,0000.21,-000.19,0000.11,0000.24,-000.23,18.1,24.4,,00.0,0643.8,31.0
2021-10-24T01:51:00Z,00000200,01000000,0000.51,0000.01,0000.17,0000.43,0000.13,-000.04,-000.02,-000.49,0000.07,18.0,24.3,,00.0,0643.8,31.0
2021-10-24T01:52:00Z,00000200,01000000,-000.00,0000.24,-000.03,-000.02,-000.14,-000.14,-000.35,0000.23,-000.13,17.9,24.2,,00.0,0643.7,31.0
2021-10-24T01:53:00Z,00000200,01000000,-000.01,0000.35,0000.37,-000.04,0000.21,0000.02,0000.32,-000.04,-000.25,17.8,24.2,,00.0,0643.7,31.0
2021-10-24T01:54:00Z,00000200,01000000,-000.95,-000.17,-000.05,0000.18,-000.27,-000.32,-000.53,-000.55,0000.40,17.7,24.1,,00.0,0643.7,31.0
2021-10-24T01:55:00Z,00000200,01000000,-000.00,-000.28,0000.39,-000.18,-000.08,0000.13,0000.33,0000.23,0000.00,17.6,24.1,,00.0,0643.7,30.9
2021-10-24T01:56:00Z,00000200,01000000,-000.58,-000.14,0000.16,0000.27,-000.18,0000.22,-000.12,0000.14,-000.32,17.6,24.1,,00.0,0643.7,31.0
2021-10-24T01:57:00Z,00000200,41000000,,,,,,,0000.12,0000.32,0000.04,17.6,24.1,,00.0,0643.8,31.0
2021-10-24T01:58:00Z,00000200,61000000,,,,,,,0000.14,-000.31,0000.34,17.3,24.2,,00.0,0642.8,31.0
2021-10-24T01:59:00Z,00000200,21000000,,,,,,,-000.06,0000.19,-000.33,17.3,24.3,,00.0,0642.9,31.0
